Home > Time Zones > World Clock > Weather > Spain > Lugo > Past weeks

Flag for Spain Weather past 2 weeks in Lugo, Galicia, Spain

Now
48 °F

Passing clouds.


Feels Like: 47 °F
Forecast: 42 / 68 °F
Wind: 3 mph from Northeast

Location: Santiago / Labacolla

Current Time: May 23, 2015 at 1:41:28 AM

Latest Report: May 23, 2015 at 1:00 AM


Visibility: N/A

Pressure: 30.33 "Hg

Humidity: 82%

Dew point: 43 °F

Location of LugoLocation

Historic Weather in Lugo — Graph

°F

Lugo temperature yesterday

Maximum temperature yesterday: 64 °F (at 3:00 PM)
Minimum temperature yesterday: 45 °F (at 5:00 AM)
Average temperature yesterday: 54 °F

Past Weeks' High & Low Weather Summary

 TemperatureHumidityPressure
High79 °F (May 12, 2:00 PM)100% (May 8, 10:00 PM)30.48 "Hg (May 8, 10:00 PM)
Low45 °F (May 12, 6:30 AM)24% (May 11, 7:00 PM)29.92 "Hg (May 8, 12:00 AM)
Average57 °F77%30.25 "Hg
* Reported Midnight between May 7 and May 8 — May 23 12:30 AM, Lugo, Weather by CustomWeather, © 2015

Note: Actual official high and low records may vary slightly from our data, if they occured in-between our weather recording intervals... More about our weather records

Advertising

Lugo weather history for previous 24 hours

 ConditionsComfort  
Time TempWeatherWind HumidityBarometerVisibility
12:30 AM
Sat, May 23
48 °FPassing clouds.6 mph82%30.33 "HgN/A
12:00 AM50 °FPassing clouds.6 mph76%30.33 "HgN/A
11:30 PM
Fri, May 22
50 °FPassing clouds.6 mph76%30.33 "HgN/A
11:00 PM52 °FPassing clouds.10 mph72%30.33 "HgN/A
10:30 PM52 °FPassing clouds.13 mph72%30.30 "HgN/A
10:00 PM54 °FPassing clouds.12 mph67%30.30 "HgN/A
9:30 PM55 °FSunny.14 mph63%30.30 "Hg10 mi
9:00 PM57 °FPassing clouds.15 mph63%30.30 "HgN/A
8:30 PM59 °FPassing clouds.18 mph55%30.27 "HgN/A
8:00 PM61 °FPassing clouds.18 mph55%30.27 "HgN/A
7:30 PM63 °FPassing clouds.14 mph52%30.27 "HgN/A
7:00 PM63 °FPassing clouds.17 mph56%30.27 "HgN/A
6:30 PM64 °FPassing clouds.16 mph52%30.27 "HgN/A
6:00 PM64 °FPassing clouds.14 mph49%30.30 "HgN/A
5:30 PM64 °FPassing clouds.17 mph52%30.30 "HgN/A
5:00 PM64 °FPassing clouds.16 mph52%30.30 "HgN/A
4:30 PM64 °FPassing clouds.15 mph52%30.30 "HgN/A
4:00 PM64 °FPassing clouds.18 mph52%30.30 "HgN/A
3:30 PM64 °FPassing clouds.17 mph49%30.33 "HgN/A
3:00 PM64 °FPassing clouds.14 mph52%30.33 "HgN/A
2:30 PM63 °FPassing clouds.16 mph56%30.33 "HgN/A
2:00 PM63 °FPassing clouds.14 mph56%30.33 "HgN/A
1:30 PM61 °FPassing clouds.14 mph59%30.33 "HgN/A
1:00 PM61 °FPassing clouds.14 mph55%30.36 "HgN/A
12:30 PM59 °FPassing clouds.14 mph59%30.36 "HgN/A
12:00 PM57 °FPassing clouds.13 mph63%30.36 "HgN/A
11:30 AM57 °FPassing clouds.14 mph63%30.36 "HgN/A
11:00 AM55 °FPassing clouds.12 mph72%30.36 "HgN/A
10:30 AM54 °FPassing clouds.12 mph77%30.39 "HgN/A
10:00 AM52 °FPassing clouds.10 mph77%30.39 "HgN/A
9:30 AM50 °FPassing clouds.8 mph82%30.39 "HgN/A
9:00 AM48 °FPassing clouds.8 mph87%30.39 "HgN/A
8:30 AM48 °FPassing clouds.6 mph87%30.39 "HgN/A
8:00 AM46 °FPassing clouds.5 mph87%30.39 "HgN/A
7:30 AM45 °FPassing clouds.6 mph93%30.39 "HgN/A
7:00 AM45 °FPassing clouds.6 mph93%30.39 "HgN/A
6:30 AM45 °FPassing clouds.7 mph93%30.39 "HgN/A
6:00 AM45 °FPassing clouds.8 mph93%30.39 "HgN/A
5:30 AM45 °FClear.10 mph93%30.39 "Hg10 mi
5:00 AM45 °FPassing clouds.12 mph93%30.39 "HgN/A
4:30 AM46 °FPassing clouds.13 mph87%30.39 "HgN/A
4:00 AM46 °FPassing clouds.8 mph87%30.42 "HgN/A
3:30 AM46 °FPassing clouds.5 mph82%30.42 "HgN/A
3:00 AM46 °FClear.5 mph82%30.42 "Hg10 mi
2:30 AM46 °FPassing clouds.5 mph82%30.42 "HgN/A
2:00 AM46 °FPassing clouds.8 mph82%30.45 "HgN/A
1:30 AM46 °FPassing clouds.7 mph82%30.45 "HgN/A
1:00 AM48 °FPassing clouds.9 mph76%30.45 "HgN/A
Weather by CustomWeather, © 2015

See weather overviewHow to use our weather pages